Weather History for KATW - April, 2012

Change the Weather History Date:

Saturday, April 14, 2012

  Actual Average Record
Temperature  
Mean Temperature 58 °F -  
Max Temperature 71 °F 53 °F 82 °F (2003)
Min Temperature 46 °F 36 °F 23 °F (2014)
Degree Days  
Heating Degree Days 6    
Growing Degree Days 8 (Base 50)    
Moisture  
Dew Point 46 °F    
Average Humidity 72    
Maximum Humidity 100    
Minimum Humidity 31    
Precipitation  
Precipitation 0.00 in - - ()
Sea Level Pressure  
Sea Level Pressure 29.86 in    
Wind  
Wind Speed 13 mph (SSW)    
Max Wind Speed 17 mph    
Max Gust Speed 22 mph    
Visibility 9 miles    
Events      
Averages and records for this station are not official NWS values.
T = Trace of Precipitation, MM = Missing Value Source: NWS Daily Summary

Daily Weather History Graph

Daily Weather History Graph

Search for Another Location

Airport or City:

Trip Planner

Search our weather history database for the weather conditions in past years. The results will help you decide how hot, cold, wet, or windy it might be!

Date:

Astronomy

Apr. 14, 2012 Rise Set
Actual Time 6:11 AM CDT 7:37 PM CDT
Civil Twilight 5:41 AM CDT 8:08 PM CDT
Nautical Twilight 5:04 AM CDT 8:44 PM CDT
Astronomical Twilight 4:25 AM CDT 9:23 PM CDT
Moon 2:48 AM CDT (4/14) 1:17 PM CDT (4/14)
Length of Visible Light 14h 26m
Length of Day
13h 26m
Last Quarter, 37% of the Moon is Illuminated
Apr 14
Last Quarter
Apr 21
New
Apr 29
First Quarter
May 5
Full
May 12
Last Quarter

Hourly Weather History & Observations

Time (CDT) Temp. Windchill Dew Point Humidity Pressure Visibility Wind Dir Wind Speed Gust Speed Precip Events Conditions
12:15 AM 53.6 °F - 39.2 °F 58% 29.92 in 10.0 mi SSW 17.3 mph 21.9 mph N/A   Overcast
12:35 AM 51.8 °F - 41.0 °F 67% 29.91 in 10.0 mi SSW 16.1 mph 21.9 mph N/A   Overcast
12:55 AM 51.8 °F - 41.0 °F 67% 29.91 in 10.0 mi SSW 16.1 mph - N/A   Overcast
1:15 AM 51.8 °F - 41.0 °F 67% 29.91 in 10.0 mi SSW 16.1 mph 20.7 mph N/A   Overcast
1:35 AM 51.8 °F - 41.0 °F 67% 29.91 in 10.0 mi SSW 15.0 mph - N/A   Overcast
1:55 AM 51.8 °F - 41.0 °F 67% 29.90 in 10.0 mi SSW 12.7 mph - N/A   Overcast
2:15 AM 51.8 °F - 42.8 °F 71% 29.90 in 10.0 mi SW 12.7 mph - N/A   Overcast
2:35 AM 51.8 °F - 42.8 °F 71% 29.92 in 10.0 mi WSW 12.7 mph - N/A   Overcast
2:55 AM 51.8 °F - 44.6 °F 76% 29.93 in 10.0 mi WSW 12.7 mph 18.4 mph N/A   Overcast
3:15 AM 50.0 °F - 44.6 °F 82% 29.90 in 10.0 mi SSW 11.5 mph - N/A   Overcast
3:35 AM 48.2 °F - 44.6 °F 87% 29.90 in 7.0 mi SSW 11.5 mph - N/A   Mostly Cloudy
3:55 AM 48.2 °F - 46.4 °F 93% 29.89 in 7.0 mi SSW 10.4 mph - N/A   Mostly Cloudy
4:15 AM 46.4 °F 40.7 °F 46.4 °F 100% 29.88 in 5.0 mi South 12.7 mph - N/A   Overcast
4:35 AM 46.4 °F 40.7 °F 46.4 °F 100% 29.87 in 5.0 mi South 12.7 mph - N/A   Overcast
4:55 AM 46.4 °F 40.7 °F 46.4 °F 100% 29.89 in 5.0 mi SSW 12.7 mph - N/A   Overcast
5:15 AM 48.2 °F - 46.4 °F 93% 29.89 in 5.0 mi SSW 12.7 mph - N/A   Mostly Cloudy
5:45 AM 48.2 °F - 46.4 °F 93% 29.89 in 5.0 mi SSW 10.4 mph - N/A   Overcast
6:45 AM 48.2 °F - 46.4 °F 93% 29.89 in 7.0 mi SSW 11.5 mph - N/A   Overcast
7:45 AM 51.8 °F - 48.2 °F 88% 29.89 in 7.0 mi SSW 10.4 mph - N/A   Overcast
8:45 AM 51.8 °F - 48.2 °F 88% 29.89 in 7.0 mi SW 13.8 mph - N/A   Mostly Cloudy
9:45 AM 55.4 °F - 50.0 °F 82% 29.88 in 10.0 mi SW 9.2 mph 17.3 mph N/A   Mostly Cloudy
10:45 AM 59.0 °F - 50.0 °F 72% 29.88 in 10.0 mi SSW 10.4 mph - N/A   Scattered Clouds
12:45 PM 66.2 °F - 48.2 °F 52% 29.86 in 10.0 mi SSW 11.5 mph 18.4 mph N/A   Clear
1:45 PM 69.8 °F - 46.4 °F 43% 29.84 in 10.0 mi South 12.7 mph - N/A   Clear
2:45 PM 71.6 °F - 42.8 °F 35% 29.79 in 10.0 mi South 13.8 mph - N/A   Partly Cloudy
3:45 PM 71.6 °F - 39.2 °F 31% 29.97 in 10.0 mi WSW 9.2 mph - N/A   Partly Cloudy
4:45 PM 71.6 °F - 41.0 °F 33% 29.76 in 10.0 mi SW 10.4 mph - N/A   Scattered Clouds
6:45 PM 66.2 °F - 42.8 °F 43% 29.76 in 10.0 mi SSW 9.2 mph - N/A   Mostly Cloudy
8:45 PM 62.6 °F - 42.8 °F 48% 29.76 in 10.0 mi SSW 4.6 mph - N/A   Mostly Cloudy
10:45 PM 59.0 °F - 51.8 °F 77% 29.77 in 10.0 mi South 8.1 mph - N/A   Mostly Cloudy
10:55 PM 59.0 °F - 51.8 °F 77% 29.75 in 10.0 mi South 6.9 mph - N/A   Clear
11:15 PM 59.0 °F - 53.6 °F 82% 29.76 in 10.0 mi South 8.1 mph - N/A   Clear
11:35 PM 60.8 °F - 53.6 °F 77% 29.76 in 10.0 mi SSW 12.7 mph - N/A   Clear
11:55 PM 60.8 °F - 55.4 °F 82% 29.76 in 10.0 mi SSW 12.7 mph - N/A   Scattered Clouds